User: anonymous   Login
Location: Hickory_Viewmont
(35.7830°N, 81.3170°W)
Time: 01:46:36
(UTC-04:00)
Language:

Okean-O - Orbit

View from above orbital plane
View from above orbital plane
View from above satellite
View from above satellite

Ground track
Ground track

The orbit data is extracted from the following two-line orbital elements,

1 25860U 99039A   16151.83985922  .00000174  00000-0  32684-4 0  9990
2 25860  98.1422 126.5546 0000899  76.6429 283.4880 14.76358315907415
Epoch (UTC): 30 May 2016 20:09:23
Eccentricity: 0.0000899
inclination: 98.1422°
perigee height: 640 km
apogee height: 641 km
right ascension of ascending node: 126.5546°
argument of perigee: 76.6429°
revolutions per day: 14.76358315
mean anomaly at epoch: 283.4880°
orbit number at epoch: 90741

The dashed part of the orbit path shows where the satellite is in the earth's shadow,  

DLR